Tracking 30995 objects as of 5-Jul-2025
HD Live streaming from Space Station
objects crossing your sky now

STARLINK-33672

Track STARLINK-33672 now!
10-day predictions
STARLINK-33672 is classified as:


NORAD ID: 63326
Int'l Code: 2025-057V
Perigee: 489.1 km
Apogee: 491.2 km
Inclination: 43.0 °
Period: 94.3 minutes
Semi major axis: 6861 km
RCS: Unknown
Launch date: March 18, 2025
Source: United States (US)
Launch site: AIR FORCE EASTERN TEST RANGE (AFETR)
Your satellite tracking list
Your tracking list is empty




NASA's NSSDC Master Catalog

Two Line Element Set (TLE):
1 63326U 25057V   25186.48602265  .00034005  00000-0  12393-2 0  9996
2 63326  43.0005 346.6680 0001528 281.3010  78.7670 15.27586627 17976
Source of the keplerian elements: AFSPC